User: anonymous   Login
Location: Bodest
(46.3000°N, 22.5667°E)
Time: 17:24:01
(UTC+00:00)
Language:

Cosmos 1844 Rocket - Orbit

View from above orbital plane
View from above orbital plane
View from above satellite
View from above satellite

Ground track
Ground track

The orbit data is extracted from the following two-line orbital elements,

1 17974U 87041B   22025.18066524 -.00000019  00000-0  14389-4 0  9991
2 17974  71.0094 323.8052 0014712 334.3945 122.4786 14.17282995795133
Epoch (UTC): 25 January 2022 04:20:09
Eccentricity: 0.0014712
inclination: 71.0094°
perigee height: 824 km
apogee height: 845 km
right ascension of ascending node: 323.8052°
argument of perigee: 334.3945°
revolutions per day: 14.17282995
mean anomaly at epoch: 122.4786°
orbit number at epoch: 79513

The dashed part of the orbit path shows where the satellite is in the earth's shadow,  

DLR